London, United Kingdom

5:33 AM GMT on March 24, 2017 (GMT +0000)
London

Weather History for 03772 - January, 2014

Change the Weather History Date:

Thursday, January 2, 2014

  Actual Average Record
Temperature  
Mean Temperature 48 °F -  
Max Temperature 52 °F 45 °F - ()
Min Temperature 43 °F 35 °F - ()
Degree Days  
Heating Degree Days 18    
Moisture  
Dew Point 43 °F    
Average Humidity 81    
Maximum Humidity 94    
Minimum Humidity 60    
Precipitation  
Precipitation 0.04 in - - ()
Sea Level Pressure  
Sea Level Pressure 29.34 in    
Wind  
Wind Speed 12 mph ()    
Max Wind Speed 20 mph    
Max Gust Speed 31 mph    
Visibility 9.5 miles    
Events Rain    
T = Trace of Precipitation, MM = Missing Value Source: Averaged Metar Reports

Daily Weather History Graph

Daily Weather History Graph

Search for Another Location

Airport or City:

Trip Planner

Search our weather history database for the weather conditions in past years. The results will help you decide how hot, cold, wet, or windy it might be!

Date:

Astronomy

Jan. 02, 2014 Rise Set
Actual Time 8:07 AM GMT 4:04 PM GMT
Civil Twilight 7:27 AM GMT 4:44 PM GMT
Nautical Twilight 6:44 AM GMT 5:27 PM GMT
Astronomical Twilight 6:03 AM GMT 6:07 PM GMT
Moon 8:24 AM GMT (1/2) 5:58 PM GMT (1/2)
Length of Visible Light 9h 17m
Length of Day
7h 57m
New Moon, 2% of the Moon is Illuminated
Jan 2
New Moon
Jan 8
First Quarter
Jan 16
Full
Jan 24
Last Quarter
Jan 30
New

Hourly Weather History & Observations

Time (GMT) Temp. Windchill Dew Point Humidity Pressure Visibility Wind Dir Wind Speed Gust Speed Precip Events Conditions
12:00 AM 48 °F - 44 °F 83% 29.08 in 3 mi SSW 19.6 mph - - Rain Rain
12:20 AM 48.2 °F - 44.6 °F 87% 29.09 in 5.6 mi SSW 11.5 mph - N/A Rain Rain Showers
12:50 AM 48.2 °F - 46.4 °F 93% 29.09 in 6.2 mi South 10.4 mph - N/A   Partly Cloudy
1:00 AM 48 °F - 45 °F 87% 29.09 in 10 mi South 10.4 mph - - Rain Rain
1:20 AM 48.2 °F - 44.6 °F 87% 29.09 in 6.2 mi SSW 15.0 mph - N/A Rain Light Rain Showers
1:50 AM 48.2 °F - 44.6 °F 87% 29.09 in 6.2 mi SSW 11.5 mph - N/A   Scattered Clouds
2:00 AM 48 °F - 44 °F 83% 29.10 in 14 mi SSW 13.8 mph - - Rain Rain
2:20 AM 48.2 °F - 44.6 °F 87% 29.09 in 6.2 mi SSW 11.5 mph - N/A   Partly Cloudy
2:50 AM 48.2 °F - 44.6 °F 87% 29.12 in 6.2 mi SW 10.4 mph - N/A Rain Light Rain
3:00 AM 47 °F - 45 °F 89% 29.12 in 5 mi SSW 12.7 mph - - Rain Light Rain Showers
3:20 AM 48.2 °F - 44.6 °F 87% 29.12 in 6.2 mi SW 10.4 mph - N/A Rain Light Rain
3:50 AM 48.2 °F - 44.6 °F 87% 29.12 in 6.2 mi WSW 10.4 mph - N/A Rain Light Rain
4:00 AM 46 °F - 44 °F 91% 29.14 in 19 mi WSW 11.5 mph - - Rain Rain
4:20 AM 48.2 °F - 44.6 °F 87% 29.15 in 6.2 mi West 16.1 mph - N/A   Mostly Cloudy
4:50 AM 46.4 °F 40.4 °F 42.8 °F 87% 29.18 in 6.2 mi West 13.8 mph - N/A   Mostly Cloudy
5:00 AM 46 °F - 42 °F 81% 29.19 in 19 mi West 13.8 mph - -   Scattered Clouds
5:20 AM 44.6 °F 38.1 °F 41.0 °F 87% 29.21 in 6.2 mi West 13.8 mph - N/A   Partly Cloudy
5:50 AM 44.6 °F 38.1 °F 41.0 °F 87% 29.24 in - West 13.8 mph - N/A   Clear
6:00 AM 44 °F - 41 °F 83% 29.24 in 19 mi WSW 12.7 mph - -  
6:20 AM 44.6 °F 38.4 °F 41.0 °F 87% 29.27 in - WSW 12.7 mph - N/A   Clear
6:50 AM 44.6 °F 38.4 °F 41.0 °F 87% 29.27 in - WSW 12.7 mph - N/A   Clear
7:00 AM 44 °F - 40 °F 83% 29.29 in 25 mi WSW 13.8 mph - -   Partly Cloudy
7:20 AM 44.6 °F 37.8 °F 41.0 °F 87% 29.30 in - WSW 15.0 mph - N/A   Clear
7:50 AM 44.6 °F 38.8 °F 41.0 °F 87% 29.33 in - WSW 11.5 mph - N/A   Clear
8:00 AM 43 °F - 40 °F 85% 29.34 in 19 mi SW 12.7 mph - -  
8:20 AM 44.6 °F 39.2 °F 41.0 °F 87% 29.36 in 6.2 mi WSW 10.4 mph - N/A   Partly Cloudy
8:50 AM 44.6 °F 38.8 °F 41.0 °F 87% 29.36 in - WSW 11.5 mph - N/A   Clear
9:00 AM 44 °F - 40 °F 80% 29.37 in 22 mi SW 11.5 mph - -  
9:20 AM 44.6 °F 39.2 °F 41.0 °F 87% 29.39 in - SW 10.4 mph - N/A   Clear
9:50 AM 46.4 °F 40.7 °F 41.0 °F 81% 29.42 in - SW 12.7 mph - N/A   Clear
10:00 AM 45 °F - 40 °F 78% 29.41 in 19 mi SW 12.7 mph - -  
10:20 AM 46.4 °F 41.5 °F 41.0 °F 81% 29.42 in - SW 10.4 mph - N/A   Clear
10:50 AM 48.2 °F - 41.0 °F 76% 29.42 in - SW 10.4 mph - N/A   Clear
11:00 AM 48 °F - 41 °F 69% 29.43 in 19 mi SW 12.7 mph - -  
11:20 AM 48.2 °F - 41.0 °F 76% 29.44 in - SW 12.7 mph 24.2 mph N/A   Clear
11:50 AM 50.0 °F - 41.0 °F 71% 29.44 in 6.2 mi SW 10.4 mph - N/A   Partly Cloudy
12:00 PM 50 °F - 42 °F 64% 29.44 in 17 mi SSW 10.4 mph - -   Scattered Clouds
12:20 PM 50.0 °F - 42.8 °F 76% 29.44 in 6.2 mi SW 11.5 mph - N/A   Partly Cloudy
12:50 PM 51.8 °F - 41.0 °F 67% 29.44 in 6.2 mi SW 13.8 mph - N/A   Partly Cloudy
1:00 PM 51 °F - 41 °F 60% 29.45 in 17 mi SW 13.8 mph - -  
1:20 PM 51.8 °F - 41.0 °F 67% 29.44 in 6.2 mi SW 11.5 mph - N/A   Partly Cloudy
1:50 PM 51.8 °F - 41.0 °F 67% 29.44 in 6.2 mi SW 11.5 mph - N/A   Scattered Clouds
2:00 PM 51 °F - 42 °F 61% 29.46 in 17 mi SSW 12.7 mph - -   Mostly Cloudy
2:20 PM 51.8 °F - 41.0 °F 67% 29.44 in 6.2 mi SW 10.4 mph - N/A   Partly Cloudy
2:50 PM 50.0 °F - 41.0 °F 71% 29.44 in 6.2 mi SSW 11.5 mph 24.2 mph N/A   Partly Cloudy
3:00 PM 50 °F - 41 °F 63% 29.46 in 17 mi SSW 11.5 mph - -  
3:20 PM 50.0 °F - 42.8 °F 76% 29.47 in 6.2 mi SSW 12.7 mph - N/A   Partly Cloudy
3:50 PM 48.2 °F - 42.8 °F 82% 29.47 in 6.2 mi South 10.4 mph - N/A   Partly Cloudy
4:00 PM 49 °F - 43 °F 71% 29.47 in 15 mi South 8.1 mph - - Rain Rain
4:20 PM 48.2 °F - 42.8 °F 82% 29.47 in 6.2 mi South 11.5 mph - N/A   Partly Cloudy
4:50 PM 48.2 °F - 42.8 °F 82% 29.47 in 6.2 mi SSW 11.5 mph - N/A   Partly Cloudy
5:00 PM 48 °F - 42 °F 73% 29.47 in 19 mi South 10.4 mph - - Rain Rain
5:20 PM 46.4 °F 42.4 °F 42.8 °F 87% 29.47 in 6.2 mi South 8.1 mph - N/A   Partly Cloudy
5:50 PM 48.2 °F - 44.6 °F 87% 29.44 in 6.2 mi South 9.2 mph - N/A   Partly Cloudy
6:00 PM 48 °F - 44 °F 79% 29.46 in 15 mi South 9.2 mph - -   Scattered Clouds
6:20 PM 48.2 °F - 42.8 °F 82% 29.44 in 6.2 mi South 10.4 mph - N/A   Partly Cloudy
6:50 PM 48.2 °F - 42.8 °F 82% 29.44 in 6.2 mi South 10.4 mph - N/A   Partly Cloudy
7:00 PM 48 °F - 43 °F 77% 29.45 in 17 mi South 10.4 mph - -   Mostly Cloudy
7:20 PM 48.2 °F - 42.8 °F 82% 29.44 in 6.2 mi South 12.7 mph - N/A   Partly Cloudy
7:50 PM 48.2 °F - 44.6 °F 87% 29.42 in 6.2 mi South 12.7 mph - N/A   Scattered Clouds
8:00 PM 49 °F - 45 °F 81% 29.43 in 14 mi South 11.5 mph - -   Scattered Clouds
8:20 PM 50.0 °F - 44.6 °F 82% 29.42 in 6.2 mi South 13.8 mph - N/A   Partly Cloudy
8:50 PM 50.0 °F - 44.6 °F 82% 29.42 in 6.2 mi South 13.8 mph - N/A   Scattered Clouds
9:00 PM 50 °F - 45 °F 78% 29.41 in 15 mi South 12.7 mph - -   Partly Cloudy
9:20 PM 50.0 °F - 46.4 °F 87% 29.39 in 6.2 mi South 13.8 mph - N/A   Partly Cloudy
9:50 PM 50.0 °F - 46.4 °F 87% 29.39 in 6.2 mi South 16.1 mph - N/A   Scattered Clouds
10:00 PM 51 °F - 46 °F 77% 29.38 in 14 mi South 15.0 mph - -   Scattered Clouds
10:20 PM 51.8 °F - 46.4 °F 82% 29.36 in 6.2 mi South 18.4 mph - N/A   Scattered Clouds
10:50 PM 51.8 °F - 46.4 °F 82% 29.33 in 6.2 mi South 18.4 mph 31.1 mph N/A Rain Light Rain
11:00 PM 51 °F - 46 °F 79% 29.34 in 12 mi South 18.4 mph - - Rain Light Rain Showers
11:20 PM 50.0 °F - 46.4 °F 87% 29.33 in 5.0 mi South 19.6 mph - N/A Rain Rain
11:50 PM 50.0 °F - 48.2 °F 94% 29.30 in 5.6 mi South 19.6 mph - N/A Rain Light Rain